Location: Melbourne
(37.8170°S, 144.9670°E)
Time: 13:31:38
(UTC+11:00)

ISS - Visible Passes

Search period start: 30 March 2017 00:00
Search period end: 08 April 2017 23:00
Orbit: 399 x 409 km, 51.6° (Epoch: 30 March)

Date Brightness Start Highest point End Pass type
(mag) Time Alt. Az. Time Alt. Az. Time Alt. Az.
31 Mar -0.7 06:31:04 10° NNE 06:32:35 13° NE 06:34:05 10° E visible
02 Apr -2.1 05:21:01 10° NNW 05:24:01 31° NE 05:27:02 10° ESE visible
03 Apr -1.2 04:31:28 16° NE 04:31:47 16° NE 04:33:55 10° E visible
03 Apr -3.4 06:04:44 10° WNW 06:07:58 47° SW 06:11:15 10° SE visible
04 Apr -3.8 05:14:29 41° NW 05:15:33 86° NE 05:18:54 10° SE visible
05 Apr -1.5 04:24:39 25° E 04:24:39 25° E 04:26:22 10° ESE visible
05 Apr -2.3 05:57:20 12° W 05:59:46 23° SSW 06:02:33 10° SSE visible
06 Apr -3.0 05:07:22 38° SSW 05:07:22 38° SSW 05:10:22 10° SE visible
07 Apr -0.8 04:17:18 16° SE 04:17:18 16° SE 04:18:03 10° SE visible
07 Apr -1.6 05:49:57 11° SW 05:51:38 14° SSW 05:53:35 10° SSE visible
08 Apr -1.7 04:59:47 19° S 04:59:47 19° S 05:01:33 10° SSE visible
